Location: Gollag?dem
(16.8053°N, 80.8024°E)
Time: 14:23:26
(UTC+00:00)

Cosmos 1633 Rocket - Pass Details

Date: 13 August 2020
Orbit: 606 x 624 km, 82.5° (Epoch: 24 September)

Event Time Altitude Azimuth Distance (km) Brightness Sun altitude
Exits shadow 14:05:57 22° 83° (E) 1,364 4.3 -15.2°
Drops below altitude 10° 14:09:00 10° 40° (NE) 1,991 5.5 -15.9°
Sets 14:11:36 0° 25° (NNE) 2,897 6.5 -16.4°
